Observations for Trim Patrick St
| Time | AQI | Temp °C | Hum % | Pres Pa | CO μg/m³ | H₂S μg/m³ | NO μg/m³ | NO₂ μg/m³ | O₃ μg/m³ | SO₂ μg/m³ | PM1 μg/m³ | PM2.5 μg/m³ | PM10 μg/m³ |
|---|---|---|---|---|---|---|---|---|---|---|---|---|---|
| Friday 28 August 2026 | |||||||||||||
| 10:13 | 2 | 21.2 | 78 | 38,460 | 0.11 | 0 | 2.03 | 0 | 37.89 | 4.96 | 19.14 | 25.79 | 28.37 |
| 10:12 | 2 | 21.2 | 78 | 38,460 | 0.11 | 0 | 2 | 0 | 34.06 | 4.54 | 20 | 28.66 | 31.53 |
| 10:11 | 2 | 21.2 | 78 | 38,460 | 0.11 | 0 | 2.04 | 0 | 32.01 | 4.67 | 20.86 | 28.58 | 31.44 |
| 10:10 | 2 | 21.2 | 77 | 38,460 | 0.13 | 0 | 2.01 | 0 | 24.89 | 4 | 20 | 27.28 | 30 |
| 10:09 | 2 | 21.1 | 79 | 38,460 | 0.23 | 0 | 2.08 | 0 | 27.4 | 6.11 | 21.72 | 29.89 | 32.88 |
| 10:08 | 2 | 21.1 | 80 | 38,460 | 0.14 | 0 | 2.15 | 0 | 22.77 | 2.24 | 21.72 | 30.45 | 32.84 |
| 10:07 | 2 | 21.1 | 79 | 38,460 | 0.18 | 0 | 2.1 | 0 | 36.88 | 5.45 | 21.72 | 29.13 | 32.05 |
| 10:06 | 2 | 21 | 79 | 38,460 | 0.17 | 0 | 2.07 | 0 | 37.03 | 4.99 | 18.29 | 27.07 | 29.77 |
| 10:05 | 2 | 21 | 79 | 38,460 | 0.16 | 0 | 2.07 | 0 | 33.49 | 4.39 | 19.14 | 28.47 | 31.32 |
| 10:03 | 2 | 20.8 | 80 | 38,460 | 0.18 | 0 | 2.14 | 0 | 36.1 | 4.5 | 20.86 | 28.97 | 31.86 |
| 10:02 | 2 | 20.8 | 80 | 38,460 | 0.16 | 0 | 2.15 | 0 | 40.52 | 4.53 | 20 | 28.26 | 29.86 |
| 10:01 | 2 | 20.7 | 79 | 38,460 | 0.17 | 0 | 2.07 | 0 | 33.41 | 3.6 | 20 | 27.7 | 30.47 |
| 10:00 | 2 | 20.7 | 79 | 38,460 | 0.18 | 0 | 2.05 | 0 | 29.05 | 4.09 | 21.72 | 28.44 | 31.29 |
| 09:59 | 2 | 20.6 | 81 | 38,460 | 0.2 | 0 | 2.13 | 0 | 25.37 | 4.28 | 20 | 28.94 | 30.51 |
| 09:58 | 2 | 20.6 | 82 | 38,460 | 0.21 | 0 | 2.25 | 0 | 32.24 | 3.75 | 21.72 | 30.78 | 33.86 |
| 09:56 | 2 | 20.5 | 82 | 38,460 | 0.21 | 0 | 2.19 | 0 | 42.47 | 4.7 | 20.86 | 28.11 | 30.92 |
| 09:55 | 2 | 20.4 | 82 | 38,460 | 0.21 | 0 | 2.18 | 0 | 38.59 | 4.1 | 21.72 | 30.18 | 32.22 |
| 09:54 | 2 | 20.4 | 82 | 38,460 | 0.22 | 0 | 2.21 | 0 | 26.95 | 3.62 | 20.86 | 29.46 | 32.4 |
| 09:53 | 2 | 20.3 | 82 | 38,460 | 0.24 | 0 | 2.17 | 0 | 25.01 | 4.19 | 20 | 28.79 | 31.67 |
| 09:52 | 2 | 20.3 | 82 | 38,460 | 0.22 | 0 | 2.21 | 0 | 45.87 | 4.11 | 20 | 29.4 | 31.34 |